• In Hungary
  • List of Countries
  • For 7 days
  • Water Temperature
  • Satellite Maps
  • Weather Map
  • News
  • Weather Widgets
  • user-avatar
    Login

    Hourly Weather Angoya

    Today, 21 February, Wednesday

    Time Temperature Precipitation Wind Pressure Humidity
    00:00 -28°C° 0.1 mm 2 mps 621 mmHg 93%
    01:00 -28°C° 0 mm 2 mps 621 mmHg 93%
    02:00 -29°C° 0 mm 2 mps 621 mmHg 92%
    03:00 -29°C° 0 mm 2 mps 621 mmHg 91%
    04:00 -30°C° 0 mm 2 mps 621 mmHg 91%
    05:00 -30°C° 0 mm 2 mps 621 mmHg 90%
    06:00 -30°C° 0 mm 2 mps 621 mmHg 90%
    07:00 -31°C° 0 mm 2 mps 621 mmHg 89%
    08:00 -29°C° 0 mm 2 mps 621 mmHg 87%
    09:00 -28°C° 0 mm 2 mps 621 mmHg 85%
    10:00 -26°C° 0 mm 2 mps 622 mmHg 82%
    11:00 -26°C° 0 mm 2 mps 622 mmHg 80%
    12:00 -26°C° 0 mm 2 mps 622 mmHg 78%
    13:00 -25°C° 0 mm 2 mps 622 mmHg 75%
    14:00 -26°C° 0 mm 2 mps 621 mmHg 79%
    15:00 -23°C° 0 mm 1 mps 621 mmHg 83%
    16:00 -24°C° 0 mm 1 mps 621 mmHg 87%
    17:00 -25°C° 0 mm 1 mps 621 mmHg 87%
    18:00 -28°C° 0 mm 1 mps 620 mmHg 88%
    19:00 -29°C° 0 mm 1 mps 620 mmHg 89%
    20:00 -29°C° 0 mm 1 mps 620 mmHg 88%
    21:00 -32°C° 0 mm 2 mps 620 mmHg 87%
    22:00 -32°C° 0 mm 2 mps 619 mmHg 86%
    23:00 -32°C° 0 mm 2 mps 619 mmHg 85%

    Tomorrow, 22 February, Thursday

    Time Temperature Precipitation Wind Pressure Humidity
    00:00 -32°C° 0 mm 2 mps 619 mmHg 84%
    01:00 -31°C° 0 mm 1 mps 619 mmHg 83%
    02:00 -31°C° 0 mm 1 mps 619 mmHg 83%
    03:00 -31°C° 0 mm 1 mps 619 mmHg 83%
    04:00 -31°C° 0 mm 1 mps 619 mmHg 82%
    05:00 -31°C° 0 mm 1 mps 619 mmHg 82%
    06:00 -31°C° 0 mm 1 mps 619 mmHg 82%
    07:00 -32°C° 0 mm 1 mps 619 mmHg 82%
    08:00 -29°C° 0 mm 1 mps 619 mmHg 79%
    09:00 -27°C° 0 mm 1 mps 620 mmHg 77%
    10:00 -24°C° 0 mm 1 mps 621 mmHg 75%
    11:00 -23°C° 0 mm 1 mps 621 mmHg 72%
    12:00 -23°C° 0 mm 1 mps 621 mmHg 70%
    13:00 -22°C° 0 mm 1 mps 621 mmHg 68%
    14:00 -23°C° 0 mm 1 mps 621 mmHg 72%
    15:00 -24°C° 0 mm 1 mps 621 mmHg 77%
    16:00 -24°C° 0 mm 1 mps 621 mmHg 82%
    17:00 -27°C° 0 mm 1 mps 621 mmHg 83%
    18:00 -28°C° 0 mm 1 mps 621 mmHg 85%
    19:00 -32°C° 0 mm 2 mps 621 mmHg 86%
    20:00 -32°C° 0 mm 2 mps 621 mmHg 85%
    21:00 -32°C° 0 mm 2 mps 621 mmHg 84%
    22:00 -34°C° 0 mm 2 mps 621 mmHg 83%
    23:00 -34°C° 0 mm 2 mps 621 mmHg 81%

    Day after tomorrow, 23 February, Friday

    Time Temperature Precipitation Wind Pressure Humidity
    00:00 -32°C° 0 mm 2 mps 622 mmHg 80%
    01:00 -30°C° 0 mm 1 mps 622 mmHg 78%
    02:00 -30°C° 0 mm 1 mps 622 mmHg 77%
    03:00 -30°C° 0 mm 1 mps 622 mmHg 76%
    04:00 -30°C° 0 mm 1 mps 622 mmHg 75%
    05:00 -30°C° 0 mm 1 mps 622 mmHg 75%
    06:00 -30°C° 0 mm 1 mps 622 mmHg 74%
    07:00 -30°C° 0 mm 1 mps 622 mmHg 73%
    08:00 -28°C° 0 mm 1 mps 623 mmHg 73%
    09:00 -25°C° 0 mm 1 mps 624 mmHg 73%
    10:00 -22°C° 0 mm 1 mps 624 mmHg 73%
    11:00 -25°C° 0 mm 2 mps 624 mmHg 75%
    12:00 -24°C° 0 mm 2 mps 624 mmHg 76%
    13:00 -23°C° 0 mm 2 mps 624 mmHg 78%
    14:00 -24°C° 0 mm 2 mps 624 mmHg 82%
    15:00 -25°C° 0 mm 2 mps 624 mmHg 85%
    16:00 -25°C° 0 mm 2 mps 623 mmHg 89%
    17:00 -27°C° 0 mm 2 mps 623 mmHg 89%
    18:00 -28°C° 0 mm 2 mps 623 mmHg 90%
    19:00 -30°C° 0 mm 2 mps 623 mmHg 90%
    20:00 -30°C° 0 mm 2 mps 623 mmHg 89%
    21:00 -30°C° 0 mm 2 mps 623 mmHg 88%
    22:00 -30°C° 0 mm 2 mps 623 mmHg 86%
    23:00 -29°C° 0.1 mm 2 mps 623 mmHg 86%

    24 February, Saturday

    Time Temperature Precipitation Wind Pressure Humidity
    00:00 -28°C° 0.1 mm 2 mps 623 mmHg 87%
    01:00 -27°C° 0.1 mm 2 mps 624 mmHg 87%
    02:00 -27°C° 0.1 mm 2 mps 623 mmHg 87%
    03:00 -27°C° 0.1 mm 2 mps 623 mmHg 88%
    04:00 -26°C° 0.1 mm 2 mps 623 mmHg 89%
    05:00 -26°C° 0.1 mm 2 mps 623 mmHg 89%
    06:00 -26°C° 0.1 mm 2 mps 623 mmHg 90%
    07:00 -26°C° 0.1 mm 2 mps 623 mmHg 90%
    08:00 -21°C° 0.1 mm 1 mps 624 mmHg 88%
    09:00 -20°C° 0.1 mm 1 mps 624 mmHg 87%
    10:00 -18°C° 0.1 mm 1 mps 624 mmHg 85%
    11:00 -18°C° 0.1 mm 1 mps 624 mmHg 84%
    12:00 -19°C° 0.1 mm 2 mps 624 mmHg 84%
    13:00 -19°C° 0.1 mm 2 mps 624 mmHg 83%
    14:00 -17°C° 0.1 mm 1 mps 624 mmHg 85%
    15:00 -17°C° 0.1 mm 1 mps 624 mmHg 87%
    16:00 -18°C° 0.1 mm 1 mps 624 mmHg 89%
    17:00 -19°C° 0.1 mm 1 mps 624 mmHg 90%
    18:00 -20°C° 0.1 mm 1 mps 624 mmHg 91%
    19:00 -21°C° 0.1 mm 1 mps 624 mmHg 92%
    20:00 -21°C° 0.1 mm 1 mps 624 mmHg 91%
    21:00 -21°C° 0.1 mm 1 mps 624 mmHg 91%
    22:00 -22°C° 0.1 mm 1 mps 623 mmHg 90%
    23:00 -22°C° 0.1 mm 1 mps 623 mmHg 90%

    25 February, Sunday

    Time Temperature Precipitation Wind Pressure Humidity
    00:00 -22°C° 0.1 mm 1 mps 623 mmHg 90%
    01:00 -22°C° 0.1 mm 1 mps 623 mmHg 90%
    02:00 -23°C° 0.1 mm 1 mps 623 mmHg 90%
    03:00 -23°C° 0.1 mm 1 mps 623 mmHg 89%
    04:00 -23°C° 0.1 mm 1 mps 623 mmHg 89%
    05:00 -23°C° 0 mm 1 mps 623 mmHg 89%
    06:00 -23°C° 0 mm 1 mps 623 mmHg 88%
    07:00 -23°C° 0 mm 1 mps 623 mmHg 88%
    08:00 -22°C° 0 mm 1 mps 623 mmHg 85%
    09:00 -20°C° 0 mm 1 mps 623 mmHg 83%
    10:00 -19°C° 0 mm 1 mps 624 mmHg 80%
    11:00 -18°C° 0 mm 1 mps 624 mmHg 79%
    12:00 -17°C° 0 mm 1 mps 624 mmHg 78%
    13:00 -17°C° 0 mm 1 mps 624 mmHg 76%
    14:00 -17°C° 0 mm 1 mps 624 mmHg 80%
    15:00 -18°C° 0 mm 1 mps 624 mmHg 83%
    16:00 -18°C° 0 mm 1 mps 623 mmHg 86%
    17:00 -20°C° 0 mm 1 mps 623 mmHg 86%
    18:00 -21°C° 0 mm 1 mps 623 mmHg 87%
    19:00 -22°C° 0 mm 1 mps 623 mmHg 88%
    20:00 -22°C° 0.1 mm 1 mps 623 mmHg 87%
    21:00 -22°C° 0.1 mm 1 mps 623 mmHg 86%
    22:00 -22°C° 0.1 mm 1 mps 623 mmHg 85%
    23:00 -22°C° 0.1 mm 1 mps 623 mmHg 86%

    26 February, Monday

    Time Temperature Precipitation Wind Pressure Humidity
    00:00 -22°C° 0.1 mm 1 mps 624 mmHg 87%
    01:00 -22°C° 0.1 mm 1 mps 624 mmHg 88%
    02:00 -22°C° 0.1 mm 1 mps 624 mmHg 89%
    03:00 -22°C° 0.1 mm 1 mps 624 mmHg 90%
    04:00 -22°C° 0.1 mm 1 mps 624 mmHg 90%
    05:00 -22°C° 0.1 mm 1 mps 624 mmHg 90%
    06:00 -23°C° 0.1 mm 1 mps 624 mmHg 90%
    07:00 -23°C° 0.1 mm 1 mps 624 mmHg 91%
    08:00 -22°C° 0 mm 1 mps 625 mmHg 88%
    09:00 -21°C° 0 mm 1 mps 625 mmHg 85%
    10:00 -20°C° 0 mm 1 mps 626 mmHg 83%
    11:00 -19°C° 0.1 mm 1 mps 626 mmHg 81%
    12:00 -21°C° 0.1 mm 2 mps 626 mmHg 79%
    13:00 -21°C° 0.1 mm 2 mps 626 mmHg 77%
    14:00 -21°C° 0.1 mm 2 mps 626 mmHg 80%
    15:00 -23°C° 0.1 mm 2 mps 626 mmHg 83%
    16:00 -23°C° 0.1 mm 2 mps 626 mmHg 86%
    17:00 -21°C° 0 mm 1 mps 626 mmHg 88%
    18:00 -23°C° 0 mm 1 mps 626 mmHg 90%
    19:00 -24°C° 0 mm 1 mps 626 mmHg 92%
    20:00 -24°C° 0 mm 1 mps 626 mmHg 92%
    21:00 -25°C° 0 mm 1 mps 626 mmHg 92%
    22:00 -25°C° 0 mm 1 mps 626 mmHg 91%
    23:00 -27°C° 0 mm 1 mps 626 mmHg 91%
    Show more